Morris, MN

12:10 PM CDT on June 29, 2017 (GMT -0500)
Morris Municipal

Weather History for KMOX - June, 2013

Change the Weather History Date:

Sunday, June 23, 2013

  Actual Average Record
Temperature  
Mean Temperature 73 °F -  
Max Temperature 80 °F 75 °F 95 °F (2005)
Min Temperature 66 °F 55 °F 46 °F (2004)
Cooling Degree Days 8    
Growing Degree Days 23 (Base 50)    
Moisture  
Dew Point 64 °F    
Average Humidity 77    
Maximum Humidity 100    
Minimum Humidity 47    
Precipitation  
Precipitation 0.49 in - - ()
Sea Level Pressure  
Sea Level Pressure 29.76 in    
Wind  
Wind Speed 13 mph (SW)    
Max Wind Speed 24 mph    
Max Gust Speed 32 mph    
Visibility 10 miles    
Events Rain , Thunderstorm    
Averages and records for this station are not official NWS values.
T = Trace of Precipitation, MM = Missing Value Source: NWS Daily Summary

Daily Weather History Graph

Daily Weather History Graph

Search for Another Location

Airport or City:

Trip Planner

Search our weather history database for the weather conditions in past years. The results will help you decide how hot, cold, wet, or windy it might be!

Date:

Astronomy

Jun. 23, 2013 Rise Set
Actual Time 5:35 AM CDT 9:16 PM CDT
Civil Twilight 4:57 AM CDT 9:54 PM CDT
Nautical Twilight 4:06 AM CDT 10:45 PM CDT
Astronomical Twilight 2:56 AM CDT 11:55 PM CDT
Moon 9:25 PM CDT (6/23) 5:57 AM CDT (6/23)
Length of Visible Light 16h 57m
Length of Day
15h 41m
Full, 100% of the Moon is Illuminated
Jun 23
Full
Jun 29
Last Quarter
Jul 8
New
Jul 15
First Quarter
Jul 22
Full

Hourly Weather History & Observations

Time (CDT) Temp. Heat Index Dew Point Humidity Pressure Visibility Wind Dir Wind Speed Gust Speed Precip Events Conditions
12:10 AM 69.8 °F - 66.2 °F 88% 29.74 in 10.0 mi East 16.1 mph - N/A   Clear
12:30 AM 69.8 °F - 66.2 °F 88% 29.75 in 10.0 mi East 11.5 mph - N/A   Mostly Cloudy
12:51 AM 69.8 °F - 66.2 °F 88% 29.73 in 10.0 mi East 12.7 mph - N/A   Scattered Clouds
1:10 AM 69.8 °F - 66.2 °F 88% 29.74 in 10.0 mi ESE 11.5 mph - N/A   Scattered Clouds
1:31 AM 69.8 °F - 66.2 °F 88% 29.75 in 10.0 mi ESE 10.4 mph - N/A   Mostly Cloudy
1:50 AM 69.8 °F - 66.2 °F 88% 29.74 in 10.0 mi ESE 11.5 mph - N/A   Mostly Cloudy
2:10 AM 71.6 °F - 66.2 °F 83% 29.76 in 10.0 mi ESE 13.8 mph - N/A Thunderstorm Overcast
2:31 AM 69.8 °F - 68.0 °F 94% 29.73 in 10.0 mi ESE 10.4 mph - N/A Rain Light Rain
2:50 AM 69.8 °F - 68.0 °F 94% 29.73 in 7.0 mi ESE 8.1 mph - 0.02 in Rain Light Rain
3:11 AM 69.8 °F - 68.0 °F 94% 29.73 in 10.0 mi SE 9.2 mph - 0.08 in Rain , Thunderstorm Rain
3:30 AM 69.8 °F - 69.8 °F 100% 29.74 in 7.0 mi SSE 9.2 mph - 0.13 in Rain , Thunderstorm Thunderstorms and Rain
3:51 AM 69.8 °F - 66.2 °F 88% 29.75 in 7.0 mi South 13.8 mph - 0.32 in Rain , Thunderstorm Heavy Thunderstorms and Rain
4:10 AM 68.0 °F - 66.2 °F 94% 29.72 in 10.0 mi SE 8.1 mph - 0.05 in Rain , Thunderstorm Thunderstorms and Rain
4:30 AM 68.0 °F - 66.2 °F 94% 29.68 in 10.0 mi East 6.9 mph - 0.11 in Rain Rain
4:51 AM 66.2 °F - 66.2 °F 100% 29.71 in 10.0 mi SSE 12.7 mph - 0.14 in Rain Light Rain
5:10 AM 66.2 °F - 66.2 °F 100% 29.67 in 7.0 mi South 9.2 mph 19.6 mph 0.01 in Rain Light Rain
5:31 AM 66.2 °F - 64.4 °F 94% 29.67 in 10.0 mi SSW 6.9 mph - 0.01 in   Mostly Cloudy
5:50 AM 66.2 °F - 64.4 °F 94% 29.65 in 7.0 mi Calm Calm - 0.01 in   Overcast
6:11 AM 66.2 °F - 64.4 °F 94% 29.62 in 7.0 mi Calm Calm - N/A   Mostly Cloudy
6:30 AM 66.2 °F - 64.4 °F 94% 29.67 in 7.0 mi South 4.6 mph - N/A   Mostly Cloudy
6:48 AM 66.2 °F - 66.2 °F 100% 29.68 in 7.0 mi SE 6.9 mph - N/A   Mostly Cloudy
7:10 AM 66.2 °F - 64.4 °F 94% 29.71 in 7.0 mi SSW 10.4 mph - N/A   Mostly Cloudy
7:28 AM 66.2 °F - 64.4 °F 94% 29.72 in 7.0 mi SSW 16.1 mph - N/A   Overcast
7:50 AM 66.2 °F - 64.4 °F 94% 29.70 in 10.0 mi SSW 13.8 mph - N/A   Scattered Clouds
8:11 AM 66.2 °F - 64.4 °F 94% 29.70 in 10.0 mi SW 11.5 mph - N/A   Clear
8:30 AM 68.0 °F - 64.4 °F 88% 29.70 in 10.0 mi SW 12.7 mph - N/A   Clear
8:50 AM 68.0 °F - 64.4 °F 88% 29.70 in 10.0 mi WSW 24.2 mph - N/A   Clear
9:10 AM 68.0 °F - 64.4 °F 88% 29.71 in 10.0 mi WSW 21.9 mph 29.9 mph N/A   Clear
9:31 AM 68.0 °F - 62.6 °F 83% 29.72 in 10.0 mi WSW 24.2 mph 32.2 mph N/A   Clear
9:50 AM 69.8 °F - 62.6 °F 78% 29.71 in 10.0 mi WSW 20.7 mph - N/A   Clear
10:11 AM 71.6 °F - 62.6 °F 73% 29.71 in 10.0 mi WSW 19.6 mph 24.2 mph N/A   Clear
10:31 AM 71.6 °F - 64.4 °F 78% 29.71 in 10.0 mi WSW 20.7 mph 25.3 mph N/A   Scattered Clouds
10:50 AM 71.6 °F - 62.6 °F 73% 29.72 in 10.0 mi WSW 19.6 mph 24.2 mph N/A   Scattered Clouds
11:11 AM 71.6 °F - 62.6 °F 73% 29.72 in 10.0 mi WSW 21.9 mph - N/A   Scattered Clouds
11:31 AM 73.4 °F - 62.6 °F 69% 29.73 in 10.0 mi WSW 15.0 mph 24.2 mph N/A   Scattered Clouds
11:51 AM 73.4 °F - 64.4 °F 73% 29.74 in 10.0 mi West 18.4 mph 24.2 mph N/A   Mostly Cloudy
12:10 PM 73.4 °F - 64.4 °F 73% 29.75 in 10.0 mi WSW 17.3 mph 21.9 mph N/A   Mostly Cloudy
12:30 PM 73.4 °F - 64.4 °F 73% 29.76 in 10.0 mi West 18.4 mph 21.9 mph N/A   Mostly Cloudy
12:50 PM 73.4 °F - 64.4 °F 73% 29.74 in 10.0 mi West 17.3 mph 23.0 mph N/A   Scattered Clouds
1:10 PM 73.4 °F - 64.4 °F 73% 29.75 in 10.0 mi West 19.6 mph 25.3 mph N/A   Scattered Clouds
1:31 PM 73.4 °F - 62.6 °F 69% 29.76 in 10.0 mi West 15.0 mph 20.7 mph N/A   Scattered Clouds
1:50 PM 73.4 °F - 62.6 °F 69% 29.77 in 10.0 mi West 13.8 mph - N/A   Scattered Clouds
2:11 PM 75.2 °F - 64.4 °F 69% 29.77 in 10.0 mi WSW 12.7 mph - N/A   Scattered Clouds
2:30 PM 77.0 °F - 64.4 °F 65% 29.77 in 10.0 mi WSW 18.4 mph - N/A   Clear
2:51 PM 78.8 °F - 62.6 °F 57% 29.77 in 10.0 mi West 17.3 mph 21.9 mph N/A   Clear
3:10 PM 78.8 °F - 64.4 °F 61% 29.77 in 10.0 mi WSW 16.1 mph 19.6 mph N/A   Scattered Clouds
3:30 PM 78.8 °F - 62.6 °F 57% 29.77 in 10.0 mi WSW 15.0 mph - N/A   Scattered Clouds
3:51 PM 78.8 °F - 60.8 °F 54% 29.77 in 10.0 mi West 18.4 mph 29.9 mph N/A   Scattered Clouds
4:10 PM 78.8 °F - 62.6 °F 57% 29.77 in 10.0 mi West 18.4 mph - N/A   Scattered Clouds
4:30 PM 80.6 °F 81.5 °F 60.8 °F 51% 29.78 in 10.0 mi West 19.6 mph 24.2 mph N/A   Scattered Clouds
4:50 PM 80.6 °F 81.5 °F 60.8 °F 51% 29.78 in 10.0 mi West 13.8 mph 20.7 mph N/A   Clear
5:10 PM 78.8 °F - 60.8 °F 54% 29.79 in 10.0 mi West 16.1 mph 21.9 mph N/A   Scattered Clouds
5:31 PM 78.8 °F - 60.8 °F 54% 29.79 in 10.0 mi West 17.3 mph 20.7 mph N/A   Scattered Clouds
5:50 PM 78.8 °F - 60.8 °F 54% 29.80 in 10.0 mi WSW 17.3 mph 21.9 mph N/A   Clear
6:10 PM 78.8 °F - 57.2 °F 47% 29.80 in 10.0 mi West 17.3 mph - N/A   Clear
6:31 PM 78.8 °F - 57.2 °F 47% 29.80 in 10.0 mi WSW 12.7 mph - N/A   Scattered Clouds
6:50 PM 77.0 °F - 57.2 °F 50% 29.81 in 10.0 mi West 12.7 mph - N/A   Scattered Clouds
7:10 PM 77.0 °F - 59.0 °F 54% 29.81 in 10.0 mi SW 10.4 mph - N/A   Scattered Clouds
7:30 PM 75.2 °F - 59.0 °F 57% 29.81 in 10.0 mi SW 10.4 mph - N/A   Mostly Cloudy
7:50 PM 77.0 °F - 60.8 °F 57% 29.82 in 10.0 mi SW 10.4 mph 17.3 mph N/A   Scattered Clouds
8:11 PM 75.2 °F - 60.8 °F 61% 29.82 in 10.0 mi SW 9.2 mph - N/A   Clear
8:30 PM 73.4 °F - 60.8 °F 65% 29.83 in 10.0 mi SW 8.1 mph - N/A   Clear
8:50 PM 73.4 °F - 62.6 °F 69% 29.83 in 10.0 mi SW 8.1 mph - N/A   Scattered Clouds
9:10 PM 71.6 °F - 62.6 °F 73% 29.83 in 10.0 mi SW 6.9 mph - N/A   Scattered Clouds
9:31 PM 71.6 °F - 62.6 °F 73% 29.84 in 10.0 mi WSW 4.6 mph - N/A   Clear
9:50 PM 69.8 °F - 62.6 °F 78% 29.85 in 10.0 mi West 4.6 mph - N/A   Clear
10:10 PM 69.8 °F - 62.6 °F 78% 29.86 in 10.0 mi WNW 6.9 mph - N/A   Clear
10:30 PM 68.0 °F - 62.6 °F 83% 29.86 in 10.0 mi West 4.6 mph - N/A   Clear
10:50 PM 68.0 °F - 62.6 °F 83% 29.86 in 10.0 mi West 3.5 mph - N/A   Clear
11:11 PM 66.2 °F - 62.6 °F 88% 29.86 in 10.0 mi Calm Calm - N/A   Clear
11:30 PM 66.2 °F - 62.6 °F 88% 29.86 in 10.0 mi Calm Calm - N/A   Clear
11:50 PM 66.2 °F - 62.6 °F 88% 29.86 in 10.0 mi Calm Calm - N/A   Clear